Macae, Brazil

10:03 PM -02 on January 16, 2018 (GMT -0200)
Macae

Weather History for SBME - January, 2014

Change the Weather History Date:

Friday, January 24, 2014

  Actual Average Record
Temperature  
Mean Temperature 86 °F -  
Max Temperature 98 °F 85 °F 102 °F (2017)
Min Temperature 75 °F 72 °F 66 °F (2008)
Cooling Degree Days 22    
Growing Degree Days 36 (Base 50)    
Moisture  
Dew Point 72 °F    
Average Humidity 72    
Maximum Humidity 94    
Minimum Humidity 44    
Precipitation  
Precipitation 0.00 in - - ()
Sea Level Pressure  
Sea Level Pressure 29.88 in    
Wind  
Wind Speed 8 mph ()    
Max Wind Speed 17 mph    
Max Gust Speed 30 mph    
Visibility 6.2 miles    
Events      
Averages and records for this station are not official NWS values.
T = Trace of Precipitation, MM = Missing Value Source: Averaged Metar Reports

Daily Weather History Graph

Daily Weather History Graph

Search for Another Location

Airport or City:

Trip Planner

Search our weather history database for the weather conditions in past years. The results will help you decide how hot, cold, wet, or windy it might be!

Date:

Astronomy

Jan. 24, 2014 Rise Set
Actual Time 6:22 AM -02 7:35 PM -02
Civil Twilight 5:58 AM -02 7:59 PM -02
Nautical Twilight 5:29 AM -02 8:28 PM -02
Astronomical Twilight 4:59 AM -02 8:58 PM -02
Moon 12:14 AM -02 (1/24) 1:25 PM -02 (1/24)
Length of Visible Light 14h 01m
Length of Day
13h 13m
Last Quarter, 46% of the Moon is Illuminated
Jan 24
Last Quarter
Jan 30
New
Feb 6
First Quarter
Feb 14
Full
Feb 22
Last Quarter

Hourly Weather History & Observations

Time (-02) Temp. Heat Index Dew Point Humidity Pressure Visibility Wind Dir Wind Speed Gust Speed Precip Events Conditions
12:00 AM 78.8 °F - 73.4 °F 83% 29.95 in - NNE 8.1 mph - N/A   Clear
1:00 AM 77.0 °F - 73.4 °F 89% 29.92 in - NE 5.8 mph - N/A   Clear
2:00 AM 77.0 °F - 73.4 °F 89% 29.92 in - NNE 5.8 mph - N/A   Clear
3:00 AM 77.0 °F - 73.4 °F 89% 29.92 in - NNE 4.6 mph - N/A   Clear
4:00 AM 77.0 °F - 73.4 °F 89% 29.89 in - NE 6.9 mph - N/A   Clear
5:00 AM 75.2 °F - 73.4 °F 94% 29.89 in - NNE 5.8 mph - N/A   Clear
6:00 AM 75.2 °F - 73.4 °F 94% 29.89 in - NE 5.8 mph - N/A   Clear
7:00 AM 78.8 °F - 73.4 °F 83% 29.89 in - NE 4.6 mph - N/A   Clear
8:00 AM 84.2 °F 90.9 °F 73.4 °F 70% 29.89 in - ENE 8.1 mph - N/A   Clear
9:00 AM 86.0 °F 93.4 °F 73.4 °F 66% 29.89 in - NE 13.8 mph - N/A   Clear
10:00 AM 91.4 °F 100.1 °F 73.4 °F 55% 29.89 in - NNE 11.5 mph - N/A   Clear
11:00 AM 93.2 °F 102.4 °F 73.4 °F 52% 29.89 in - NE 13.8 mph - N/A   Clear
12:00 PM 96.8 °F 107.3 °F 73.4 °F 47% 29.89 in - NE 15.0 mph - N/A   Clear
1:00 PM 98.6 °F 109.2 °F 73.4 °F 44% 29.92 in 6.2 mi NE 11.5 mph - N/A   Scattered Clouds
2:00 PM 91.4 °F 98.4 °F 71.6 °F 52% 29.86 in 6.2 mi East 11.5 mph - N/A   Scattered Clouds
3:00 PM 87.8 °F 92.6 °F 69.8 °F 55% 29.86 in 6.2 mi East 13.8 mph - N/A   Scattered Clouds
4:00 PM 86.0 °F 90.4 °F 69.8 °F 58% 29.83 in 6.2 mi East 15.0 mph - N/A   Partly Cloudy
4:12 PM 86.0 °F 90.4 °F 69.8 °F 58% 29.83 in 6.2 mi East 17.3 mph 29.9 mph N/A   Partly Cloudy
6:00 PM 82.4 °F 87.2 °F 71.6 °F 70% 29.83 in 6.2 mi East 17.3 mph - N/A   Partly Cloudy
7:00 PM 78.8 °F - 71.6 °F 78% 29.83 in - East 13.8 mph - N/A   Clear
8:00 PM 77.0 °F - 69.8 °F 78% 29.86 in - East 8.1 mph - N/A   Clear
9:00 PM 78.8 °F - 71.6 °F 78% 29.86 in - NE 8.1 mph - N/A   Clear
10:00 PM 78.8 °F - 71.6 °F 78% 29.89 in - NNE 8.1 mph - N/A   Clear
11:00 PM 77.0 °F - 71.6 °F 83% 29.89 in - NE 6.9 mph - N/A   Clear